N577JC SLET-SLCB

Flight info

Callsign N577JC
Flight time 0h 30m
Altitude 24000
Route SANSO UM793 CBA
Aircraft C750/M-V/N

Departure

Time 2026-04-27 03:19
Airport El Trompillo Airport (SLET)

Arrival

Time 2026-04-27 03:49
Airport Jorge Wilsterman International Airport (SLCB)
Time Latitude Longitude Altitude Speed Heading
2026-04-27 03:13 -17.80234 -63.17610 1375 ft 0 kts 81°
2026-04-27 03:17 -17.80235 -63.17611 1375 ft 1 kts 81°
2026-04-27 03:17 -17.80237 -63.17625 1375 ft 2 kts 81°
2026-04-27 03:17 -17.80240 -63.17644 1375 ft 3 kts 81°
2026-04-27 03:17 -17.80243 -63.17665 1375 ft 3 kts 81°
2026-04-27 03:18 -17.80243 -63.17667 1375 ft 0 kts 81°
2026-04-27 03:18 -17.80245 -63.17657 1375 ft 4 kts 123°
2026-04-27 03:18 -17.80304 -63.17668 1375 ft 14 kts 199°
2026-04-27 03:18 -17.80419 -63.17688 1375 ft 18 kts 149°
2026-04-27 03:19 -17.80712 -63.17470 1375 ft 103 kts 145°
2026-04-27 03:19 -17.81633 -63.16775 1423 ft 221 kts 144°
2026-04-27 03:19 -17.83175 -63.15742 2515 ft 290 kts 155°
2026-04-27 03:19 -17.85247 -63.15410 4626 ft 305 kts 188°
2026-04-27 03:20 -17.87268 -63.16344 5444 ft 354 kts 218°
2026-04-27 03:20 -17.88788 -63.18473 5602 ft 374 kts 248°
2026-04-27 03:20 -17.89258 -63.21205 6343 ft 381 kts 271°
2026-04-27 03:20 -17.89174 -63.23951 6976 ft 373 kts 276°
2026-04-27 03:21 -17.88959 -63.26640 7516 ft 369 kts 278°
2026-04-27 03:21 -17.88683 -63.29309 8045 ft 367 kts 278°
2026-04-27 03:21 -17.88378 -63.31970 8668 ft 367 kts 279°
2026-04-27 03:21 -17.88052 -63.34673 9419 ft 377 kts 279°
2026-04-27 03:22 -17.87687 -63.37424 10177 ft 378 kts 281°
2026-04-27 03:22 -17.87223 -63.40127 10926 ft 378 kts 283°
2026-04-27 03:22 -17.86703 -63.42813 11672 ft 379 kts 284°
2026-04-27 03:22 -17.86147 -63.45537 12427 ft 381 kts 284°
2026-04-27 03:23 -17.85575 -63.48270 13180 ft 384 kts 284°
2026-04-27 03:23 -17.84997 -63.50997 13926 ft 388 kts 284°
2026-04-27 03:23 -17.84400 -63.53790 14683 ft 392 kts 284°
2026-04-27 03:23 -17.83798 -63.56595 15437 ft 395 kts 284°
2026-04-27 03:24 -17.83157 -63.59424 16192 ft 399 kts 286°
2026-04-27 03:24 -17.82457 -63.62238 16940 ft 403 kts 287°
2026-04-27 03:24 -17.81711 -63.65099 17695 ft 407 kts 287°
2026-04-27 03:24 -17.80946 -63.67966 18445 ft 412 kts 288°
2026-04-27 03:25 -17.80161 -63.70873 19197 ft 416 kts 288°
2026-04-27 03:25 -17.79362 -63.73811 19950 ft 421 kts 288°
2026-04-27 03:25 -17.78546 -63.76793 20706 ft 426 kts 288°
2026-04-27 03:25 -17.77706 -63.79802 21462 ft 430 kts 288°
2026-04-27 03:26 -17.76813 -63.82824 22217 ft 435 kts 289°
2026-04-27 03:26 -17.75899 -63.85828 22961 ft 439 kts 289°
2026-04-27 03:26 -17.74944 -63.88914 23719 ft 444 kts 290°
2026-04-27 03:26 -17.73965 -63.92047 24003 ft 456 kts 290°
2026-04-27 03:27 -17.72975 -63.95194 24017 ft 458 kts 290°
2026-04-27 03:27 -17.71972 -63.98374 24007 ft 459 kts 290°
2026-04-27 03:27 -17.70975 -64.01521 24001 ft 459 kts 290°
2026-04-27 03:27 -17.69960 -64.04724 23999 ft 460 kts 290°
2026-04-27 03:28 -17.68949 -64.07905 23999 ft 460 kts 290°
2026-04-27 03:28 -17.67932 -64.11099 23999 ft 460 kts 290°
2026-04-27 03:28 -17.66923 -64.14264 23999 ft 460 kts 290°
2026-04-27 03:28 -17.65912 -64.17432 23999 ft 460 kts 290°
2026-04-27 03:29 -17.64886 -64.20641 23999 ft 460 kts 290°
2026-04-27 03:29 -17.63875 -64.23798 23999 ft 461 kts 290°
2026-04-27 03:29 -17.62851 -64.26992 23999 ft 461 kts 290°
2026-04-27 03:29 -17.61823 -64.30191 23999 ft 461 kts 290°
2026-04-27 03:30 -17.60808 -64.33347 23999 ft 461 kts 290°
2026-04-27 03:30 -17.59790 -64.36510 23999 ft 461 kts 290°
2026-04-27 03:30 -17.59169 -64.38433 23999 ft 461 kts 290°
2026-04-27 03:30 -17.58599 -64.40199 23999 ft 461 kts 290°
2026-04-27 03:31 -17.57580 -64.43355 23999 ft 462 kts 290°
2026-04-27 03:31 -17.56537 -64.46575 23999 ft 464 kts 290°
2026-04-27 03:31 -17.55504 -64.49760 23999 ft 465 kts 290°
2026-04-27 03:31 -17.54456 -64.52987 23999 ft 466 kts 290°
2026-04-27 03:32 -17.53418 -64.56178 23999 ft 467 kts 290°
2026-04-27 03:32 -17.52496 -64.59494 23999 ft 469 kts 284°
2026-04-27 03:32 -17.51922 -64.62838 24000 ft 470 kts 279°
2026-04-27 03:32 -17.51560 -64.66234 24000 ft 471 kts 277°
2026-04-27 03:33 -17.51323 -64.69671 24000 ft 472 kts 275°
2026-04-27 03:33 -17.51158 -64.73113 23999 ft 472 kts 274°
2026-04-27 03:33 -17.51028 -64.76540 23999 ft 472 kts 274°
2026-04-27 03:33 -17.50908 -64.79997 23999 ft 472 kts 274°
2026-04-27 03:34 -17.50786 -64.83428 23999 ft 472 kts 274°
2026-04-27 03:34 -17.50654 -64.86868 23999 ft 472 kts 274°
2026-04-27 03:34 -17.50510 -64.90295 23999 ft 472 kts 274°
2026-04-27 03:34 -17.50350 -64.93746 23999 ft 472 kts 275°
2026-04-27 03:35 -17.50175 -64.97196 23999 ft 472 kts 275°
2026-04-27 03:35 -17.49989 -65.00620 23999 ft 472 kts 275°
2026-04-27 03:35 -17.49791 -65.04039 23999 ft 472 kts 275°
2026-04-27 03:35 -17.49583 -65.07469 23999 ft 472 kts 275°
2026-04-27 03:36 -17.49369 -65.10875 23999 ft 471 kts 275°
2026-04-27 03:36 -17.49145 -65.14322 23999 ft 471 kts 276°
2026-04-27 03:36 -17.48919 -65.17717 23999 ft 471 kts 276°
2026-04-27 03:36 -17.48685 -65.21177 23999 ft 471 kts 276°
2026-04-27 03:37 -17.48452 -65.24567 23999 ft 471 kts 276°
2026-04-27 03:37 -17.48212 -65.28023 23999 ft 471 kts 276°
2026-04-27 03:37 -17.47975 -65.31421 23999 ft 471 kts 276°
2026-04-27 03:37 -17.47739 -65.34826 23999 ft 471 kts 276°
2026-04-27 03:38 -17.47505 -65.38255 23999 ft 471 kts 276°
2026-04-27 03:38 -17.47274 -65.41682 23999 ft 471 kts 276°
2026-04-27 03:38 -17.47044 -65.45109 23999 ft 471 kts 276°
2026-04-27 03:38 -17.46814 -65.48547 23999 ft 471 kts 276°
2026-04-27 03:39 -17.46670 -65.51969 23961 ft 466 kts 271°
2026-04-27 03:39 -17.47046 -65.55251 23623 ft 452 kts 260°
2026-04-27 03:39 -17.47849 -65.58389 23257 ft 440 kts 254°
2026-04-27 03:39 -17.47966 -65.58759 23212 ft 438 kts 253°
2026-04-27 03:40 -17.48808 -65.61144 22913 ft 430 kts 250°
2026-04-27 03:40 -17.49965 -65.63986 22540 ft 421 kts 248°
2026-04-27 03:40 -17.51190 -65.66744 22164 ft 412 kts 246°
2026-04-27 03:40 -17.52439 -65.69434 21786 ft 405 kts 245°
2026-04-27 03:41 -17.53588 -65.72111 21408 ft 398 kts 250°
2026-04-27 03:41 -17.54504 -65.74789 21037 ft 391 kts 253°
2026-04-27 03:41 -17.55283 -65.77529 20658 ft 385 kts 257°
2026-04-27 03:41 -17.55895 -65.80238 20284 ft 380 kts 261°
2026-04-27 03:42 -17.56177 -65.81925 20051 ft 377 kts 263°
2026-04-27 03:42 -17.56459 -65.83997 19765 ft 374 kts 264°
2026-04-27 03:42 -17.56764 -65.86671 19392 ft 371 kts 265°
2026-04-27 03:42 -17.57040 -65.89365 19014 ft 368 kts 266°
2026-04-27 03:43 -17.57294 -65.91995 18642 ft 365 kts 266°
2026-04-27 03:43 -17.57544 -65.94653 18264 ft 363 kts 266°
2026-04-27 03:43 -17.57786 -65.97260 17890 ft 359 kts 266°
2026-04-27 03:43 -17.58010 -65.99679 17537 ft 354 kts 266°
2026-04-27 03:44 -17.58085 -66.00483 17419 ft 353 kts 266°
2026-04-27 03:44 -17.58241 -66.02177 17169 ft 350 kts 266°
2026-04-27 03:44 -17.58465 -66.04589 16809 ft 346 kts 266°
2026-04-27 03:44 -17.58536 -66.05364 16693 ft 344 kts 266°
2026-04-27 03:45 -17.58764 -66.07824 16320 ft 341 kts 266°
2026-04-27 03:45 -17.58992 -66.10287 15944 ft 338 kts 266°
2026-04-27 03:45 -17.59217 -66.12727 15568 ft 335 kts 267°
2026-04-27 03:45 -17.59504 -66.15935 15069 ft 331 kts 269°
2026-04-27 03:46 -17.59402 -66.17542 14809 ft 326 kts 284°
2026-04-27 03:46 -17.58652 -66.19526 14475 ft 320 kts 300°
2026-04-27 03:46 -17.58052 -66.20585 14279 ft 318 kts 304°
2026-04-27 03:46 -17.57358 -66.21649 14071 ft 316 kts 307°
2026-04-27 03:47 -17.56043 -66.23469 13699 ft 314 kts 310°
2026-04-27 03:47 -17.54660 -66.25244 13320 ft 312 kts 314°
2026-04-27 03:47 -17.52985 -66.26552 13450 ft 291 kts 334°
2026-04-27 03:47 -17.51098 -66.27140 13295 ft 283 kts 355°
2026-04-27 03:48 -17.49261 -66.26733 13277 ft 273 kts 34°
2026-04-27 03:48 -17.48259 -66.24983 12107 ft 306 kts 68°
2026-04-27 03:48 -17.47483 -66.22864 10941 ft 304 kts 61°
2026-04-27 03:48 -17.46331 -66.21128 9745 ft 284 kts 44°
2026-04-27 03:49 -17.44841 -66.19855 9037 ft 261 kts 37°
2026-04-27 03:49 -17.43458 -66.18773 8536 ft 241 kts 37°
2026-04-27 03:49 -17.42242 -66.17814 8403 ft 176 kts 37°
2026-04-27 03:49 -17.41654 -66.17350 8402 ft 37 kts 36°
2026-04-27 03:50 -17.41598 -66.17307 8402 ft 34 kts 36°
2026-04-27 03:50 -17.41521 -66.17248 8402 ft 4 kts 36°
2026-04-27 03:50 -17.41494 -66.17226 8402 ft 6 kts 45°
2026-04-27 03:50 -17.41511 -66.17208 8402 ft 7 kts 225°
2026-04-27 03:51 -17.41559 -66.17269 8402 ft 16 kts 225°
2026-04-27 03:51 -17.41668 -66.17364 8402 ft 26 kts 218°
2026-04-27 03:51 -17.41822 -66.17482 8402 ft 21 kts 220°
2026-04-27 03:51 -17.41889 -66.17543 8402 ft 15 kts 221°
2026-04-27 03:52 -17.41896 -66.17550 8402 ft 14 kts 221°
2026-04-27 03:52 -17.41962 -66.17613 8402 ft 11 kts 242°
2026-04-27 03:52 -17.41938 -66.17661 8402 ft 6 kts 314°
2026-04-27 03:52 -17.41929 -66.17670 8402 ft 0 kts 314°
2026-04-27 03:54 -17.41928 -66.17671 8402 ft 1 kts 314°
2026-04-27 03:54 -17.41912 -66.17688 8402 ft 7 kts 314°
2026-04-27 03:55 -17.41858 -66.17747 8402 ft 16 kts 313°
2026-04-27 03:55 -17.41764 -66.17855 8402 ft 25 kts 311°
2026-04-27 03:55 -17.41644 -66.17924 8402 ft 15 kts 21°
2026-04-27 03:55 -17.41599 -66.17860 8402 ft 9 kts 74°
2026-04-27 03:56 -17.41582 -66.17819 8402 ft 0 kts 60°